Tracking 35331 objects as of 16-Sep-2026
HD Live streaming from Space Station
objects crossing your sky now

SPACEBEE-131


SPACEBEE-131 is no longer on orbit


NORAD ID: 52181
Int'l Code: 2022-033AA
Launch date: April 1, 2022
Source: United States (US)
Launch site: AIR FORCE EASTERN TEST RANGE (AFETR)
Decay date: 2023-10-17
Your satellite tracking list
Your tracking list is empty




NASA's NSSDC Master Catalog

Two Line Element Set (TLE):
1 52181U 22033AA  23289.49700838  .01676816  18986-2  25117-2 0  9997
2 52181  97.3215  17.9985 0009086 293.4377  66.5948 16.05146768 86414
Source of the keplerian elements: AFSPC